This demonstration page uses our WeatherBlox Daily Observations layout. Learn more.

Left ArrowRight Arrow

Hourly Observations for February 27, 2019

Temp ( °F °C ) Dew Point ( °F °C ) Humidity (%) Winds ( mph kmh ) Pressure ( in mb ) Visibility ( mi km ) Precip ( " mm )
12:36 am 00:36 Cloudy with Light Snow 13 -10.6 7 -13.9 77 77 NNW 13 20 30.38 1029 5 8 0.00 0.03
12:52 am 00:52 Cloudy with Light Snow 13 -10.6 7 -13.9 77 77 NNW 12 19 30.34 1028 6 10 0.00 0.03
1:52 am 01:52 Cloudy with Light Snow 11 -11.7 5 -15 77 77 NNW 16 26 30.37 1028 5 8 0.00 0.03
2:52 am 02:52 Cloudy with Light Snow 11 -11.7 5 -15 77 77 NNW 16 26 30.37 1029 7 11 0.00 0.03
3:52 am 03:52 Cloudy with Light Snow 10 -12.2 3 -16.1 73 73 N 14 22 30.38 1029 7 11 0.00 0.03
4:52 am 04:52 Windy with Snow Likely 10 -12.2 2 -16.7 69 69 N 20 31 30.40 1029 8 13 0.00 0.03
5:52 am 05:52 Cloudy with Light Snow 9 -12.8 2 -16.7 73 73 N 18 30 30.41 1030 8 13 0.00 0.03
6:52 am 06:52 Cloudy 9 -12.8 1 -17.2 70 70 NNW 16 26 30.44 1031 10 16 0.00 0.03
7:25 am 07:25 Cloudy 9 -12.8 1 -17.2 70 70 NNW 17 28 30.51 1033 10 16 0.00 0.00
7:52 am 07:52 Cloudy with Light Snow 9 -12.8 1 -17.2 70 70 N 17 28 30.45 1031 8 13 0.00 0.03
8:35 am 08:35 Cloudy with Light Snow 9 -12.8 1 -17.2 70 70 N 18 30 30.52 1034 8 13 0.00 0.03
8:52 am 08:52 Windy with Snow Likely 9 -12.8 1 -17.2 70 70 N 21 33 30.47 1032 8 13 0.00 0.03
9:52 am 09:52 Cloudy with Light Snow 9 -12.8 1 -17.2 70 70 N 16 26 30.48 1032 5 8 0.00 0.03
10:52 am 10:52 Cloudy 11 -11.7 1 -17.2 64 64 N 18 30 30.48 1032 9 14 0.00 0.03
11:52 am 11:52 Cloudy 12 -11.1 2 -16.7 64 64 NNW 14 22 30.46 1032 10 16 0.00 0.00
12:52 pm 12:52 Mostly Cloudy 13 -10.6 2 -16.7 61 61 N 16 26 30.47 1032 10 16 0.00 0.00
1:52 pm 13:52 Cloudy 13 -10.6 2 -16.7 61 61 N 20 31 30.45 1031 10 16 0.00 0.00
2:52 pm 14:52 Cloudy 13 -10.6 3 -16.1 64 64 N 17 28 30.45 1031 10 16 0.00 0.00
3:52 pm 15:52 Cloudy 13 -10.6 1 -17.2 59 59 N 16 26 30.44 1031 10 16 0.00 0.00
4:52 pm 16:52 Cloudy 12 -11.1 1 -17.2 61 61 N 12 19 30.44 1031 10 16 0.00 0.00
5:52 pm 17:52 Cloudy 10 -12.2 1 -17.2 67 67 N 6 9 30.42 1030 10 16 0.00 0.00
6:52 pm 18:52 Cloudy 8 -13.3 0 -17.8 69 69 N 7 11 30.42 1030 10 16 0.00 0.00
7:52 pm 19:52 Cloudy 7 -13.9 0 -17.8 73 73 N 6 9 30.44 1031 10 16 0.00 0.00
8:52 pm 20:52 Cloudy 6 -14.4 -1 -18.3 73 73 N 6 9 30.43 1030 10 16 0.00 0.00
9:52 pm 21:52 Cloudy 6 -14.4 -1 -18.3 73 73 NNW 3 6 30.42 1030 10 16 0.00 0.00
10:52 pm 22:52 Partly Cloudy 5 -15 -1 -18.3 76 76 N 3 6 30.41 1030 10 16 0.00 0.00
11:52 pm 23:52 Partly Cloudy 3 -16.1 -2 -18.9 79 79 N 5 7 30.40 1029 10 16 0.00 0.00

Powered by AerisWeather